EW8528 Weather Reports


time (UTC)temp
C
wind
direction
speed
KPH
gust
KPH
rain 1hr
cm
rain 24hr
cm
rain mn
cm
humidity
%
barometer
mb
20220811233541 23 331 1.6 8.0 0.00 0.00 0.00 80 1010.4
20220811233055 24 317 3.2 8.0 0.00 0.00 0.00 79 1010.5
20220811232541 24 340 1.6 8.0 0.00 0.00 0.00 79 1010.5
20220811232041 24 353 1.6 4.8 0.00 0.00 0.00 78 1010.4
20220811231654 24 359 1.6 6.4 0.00 0.00 0.00 78 1010.3
20220811231049 25 30 1.6 6.4 0.00 0.00 0.00 77 1010.3
20220811230542 25 342 1.6 6.4 0.00 0.00 0.00 76 1010.3
20220811230110 25 326 0.0 3.2 0.00 0.00 0.00 76 1010.3
20220811225540 25 63 0.0 3.2 0.00 0.00 0.00 76 1010.2
20220811225049 25 65 0.0 3.2 0.00 0.00 0.00 76 1010.3
20220811224605 25 65 0.0 3.2 0.00 0.00 0.00 76 1010.3
20220811224041 25 62 0.0 3.2 0.00 0.00 0.00 75 1010.3
20220811223543 25 0 0.0 3.2 0.00 0.00 0.00 76 1010.2
20220811223059 25 105 0.0 3.2 0.00 0.00 0.00 77 1010.2
20220811222541 25 99 1.6 6.4 0.00 0.00 0.00 76 1010.2
20220811222042 25 71 1.6 8.0 0.00 0.00 0.00 76 1010.2
20220811221546 25 63 1.6 8.0 0.00 0.00 0.00 76 1010.3
20220811221041 25 1 3.2 8.0 0.00 0.00 0.00 75 1010.3
20220811220541 25 39 1.6 6.4 0.00 0.00 0.00 74 1010.3
20220811220049 26 330 1.6 6.4 0.00 0.00 0.00 73 1010.2
20220811215540 26 53 1.6 8.0 0.00 0.00 0.00 72 1010.0
20220811215040 26 81 1.6 8.0 0.00 0.00 0.00 71 1010.2
20220811214558 27 65 1.6 8.0 0.00 0.00 0.00 70 1010.2
20220811214040 27 27 1.6 3.2 0.00 0.00 0.00 69 1010.2
20220811213539 27 35 1.6 3.2 0.00 0.00 0.00 71 1010.2
20220811213054 26 112 0.0 3.2 0.00 0.00 0.00 72 1010.2
20220811212541 26 110 1.6 3.2 0.00 0.00 0.00 71 1010.4
20220811212041 26 89 1.6 6.4 0.00 0.00 0.00 71 1010.2
20220811211552 26 94 0.0 6.4 0.00 0.00 0.00 72 1010.3
20220811211040 26 51 1.6 4.8 0.00 0.00 0.00 73 1010.2
20220811210544 25 338 0.0 3.2 0.00 0.00 0.00 74 1010.2
20220811210107 25 336 1.6 4.8 0.00 0.00 0.00 73 1010.3
20220811205540 25 95 1.6 4.8 0.00 0.00 0.00 73 1010.2
20220811205040 25 133 1.6 4.8 0.00 0.00 0.00 72 1010.4
20220811204550 25 42 1.6 6.4 0.00 0.00 0.00 73 1010.2
20220811204049 25 104 0.0 8.0 0.00 0.00 0.00 73 1010.4
20220811203545 25 0 1.6 8.0 0.00 0.00 0.00 72 1010.3
20220811203059 25 40 1.6 4.8 0.00 0.00 0.00 73 1010.4
20220811202539 25 112 1.6 4.8 0.00 0.00 0.00 73 1010.3
20220811202046 25 55 1.6 4.8 0.00 0.00 0.00 72 1010.3
20220811201553 26 99 1.6 4.8 0.00 0.00 0.00 71 1010.3
20220811201042 26 102 0.0 6.4 0.00 0.00 0.00 71 1010.4
20220811200539 26 46 1.6 6.4 0.00 0.00 0.00 71 1010.3
20220811200050 26 39 1.6 6.4 0.00 0.00 0.00 70 1010.3
20220811195539 26 59 0.0 4.8 0.00 0.00 0.00 70 1010.4
20220811195039 26 141 1.6 6.4 0.00 0.00 0.00 70 1010.4
20220811194604 26 34 1.6 6.4 0.00 0.00 0.00 69 1010.5
20220811194040 26 70 1.6 6.4 0.00 0.00 0.00 68 1010.6
20220811193541 26 118 0.0 6.4 0.00 0.00 0.00 68 1010.5
20220811193050 26 120 1.6 6.4 0.00 0.00 0.00 67 1010.6
20220811192540 26 127 1.6 4.8 0.00 0.00 0.00 69 1010.5
20220811192043 26 342 1.6 6.4 0.00 0.00 0.00 68 1010.6
20220811191556 26 69 1.6 6.4 0.00 0.00 0.00 69 1010.7
20220811191040 26 122 3.2 6.4 0.00 0.00 0.00 68 1010.6
20220811190542 26 93 0.0 4.8 0.00 0.00 0.00 69 1010.7
20220811190100 26 65 0.0 3.2 0.00 0.00 0.00 69 1010.9
20220811185537 26 0 0.0 4.8 0.00 0.00 0.00 68 1010.9
20220811185050 26 310 1.6 8.0 0.00 0.00 0.00 67 1011.0
20220811184633 26 61 1.6 8.0 0.00 0.00 0.00 67 1010.9
20220811184045 26 333 3.2 8.0 0.00 0.00 0.00 67 1010.8
20220811183544 26 1 1.6 9.7 0.00 0.00 0.00 68 1011.0
20220811183103 26 102 3.2 9.7 0.00 0.00 0.00 70 1010.9
20220811182541 25 122 1.6 4.8 0.00 0.00 0.00 71 1010.8
20220811182041 26 117 1.6 4.8 0.00 0.00 0.00 67 1011.0
20220811181600 26 48 1.6 4.8 0.00 0.00 0.00 68 1011.0
20220811181040 26 74 1.6 8.0 0.00 0.00 0.00 68 1011.1
20220811180548 26 108 1.6 8.0 0.00 0.00 0.00 67 1011.1
20220811180049 26 329 3.2 6.4 0.00 0.00 0.00 67 1011.0
20220811175542 26 108 0.0 4.8 0.00 0.00 0.00 64 1011.1
20220811175043 26 52 0.0 6.4 0.00 0.00 0.00 70 1011.3
20220811174614 26 62 3.2 6.4 0.00 0.00 0.00 68 1011.3
20220811174041 26 331 1.6 9.7 0.00 0.00 0.00 66 1011.4
20220811173541 25 0 1.6 9.7 0.00 0.00 0.00 71 1011.6
20220811173139 25 349 3.2 8.0 0.00 0.00 0.00 70 1011.6
20220811172546 25 47 3.2 6.4 0.00 0.00 0.00 72 1011.7
20220811172042 25 80 3.2 6.4 0.00 0.00 0.00 73 1011.9
20220811171557 25 340 0.0 6.4 0.00 0.00 0.00 74 1011.9
20220811171041 25 83 1.6 6.4 0.00 0.00 0.00 76 1012.1
20220811170540 25 86 1.6 4.8 0.00 0.00 0.00 76 1012.2
20220811170047 25 73 1.6 4.8 0.00 0.00 0.00 76 1012.1
20220811165538 24 58 1.6 9.7 0.00 0.00 0.00 76 1012.1
20220811165047 24 348 3.2 9.7 0.00 0.00 0.00 76 1012.2
20220811164600 24 46 0.0 8.0 0.00 0.00 0.00 77 1012.2
20220811164043 24 341 3.2 8.0 0.00 0.00 0.00 77 1012.3
20220811163542 24 333 1.6 8.0 0.00 0.00 0.00 76 1012.2
20220811163112 24 357 1.6 6.4 0.00 0.00 0.00 76 1012.2
20220811162544 24 349 1.6 6.4 0.00 0.00 0.00 75 1012.1
20220811162043 24 0 1.6 3.2 0.00 0.00 0.00 76 1012.0
20220811161553 24 101 1.6 4.8 0.00 0.00 0.00 77 1012.1
20220811161041 24 4 0.0 4.8 0.00 0.00 0.00 77 1012.3
20220811160541 24 349 1.6 4.8 0.00 0.00 0.00 78 1012.3
20220811160059 24 93 0.0 3.2 0.00 0.00 0.00 79 1012.3
20220811155545 23 93 0.0 3.2 0.00 0.00 0.00 79 1012.4
20220811155042 23 102 1.6 3.2 0.00 0.00 0.00 79 1012.2
20220811154628 23 94 0.0 3.2 0.00 0.00 0.00 79 1012.4
20220811154050 23 83 0.0 3.2 0.00 0.00 0.00 80 1012.5
20220811153541 23 0 0.0 1.6 0.00 0.00 0.00 81 1012.4
20220811153058 23 95 0.0 1.6 0.00 0.00 0.00 82 1012.4
20220811152538 23 0 0.0 1.6 0.00 0.00 0.00 81 1012.5
20220811152041 23 75 0.0 1.6 0.00 0.00 0.00 81 1012.6
20220811151601 23 0 0.0 1.6 0.00 0.00 0.00 81 1012.5
20220811151049 23 331 0.0 1.6 0.00 0.00 0.00 81 1012.5
20220811150538 23 331 0.0 4.8 0.00 0.00 0.00 81 1012.4
20220811150110 23 0 0.0 4.8 0.00 0.00 0.00 80 1012.6
20220811145544 23 327 1.6 4.8 0.00 0.00 0.00 79 1012.6
20220811145045 23 62 0.0 3.2 0.00 0.00 0.00 79 1012.4
20220811144555 23 0 1.6 3.2 0.00 0.00 0.00 78 1012.7
20220811144050 23 60 1.6 3.2 0.00 0.00 0.00 76 1012.6
20220811143537 23 0 0.0 3.2 0.00 0.00 0.00 76 1012.7
20220811143050 23 0 1.6 3.2 0.00 0.00 0.00 75 1012.7
20220811142541 23 96 0.0 3.2 0.00 0.00 0.00 75 1012.7
20220811142043 23 74 0.0 3.2 0.00 0.00 0.00 75 1012.7
20220811141556 23 0 0.0 3.2 0.00 0.00 0.00 76 1012.6
20220811141041 23 29 0.0 4.8 0.00 0.00 0.00 75 1012.6
20220811140542 23 0 1.6 4.8 0.00 0.00 0.00 76 1012.7
20220811140113 23 341 0.0 4.8 0.00 0.00 0.00 78 1012.7
20220811135538 23 41 1.6 4.8 0.00 0.00 0.00 77 1012.7
20220811135041 23 116 0.0 4.8 0.00 0.00 0.00 78 1012.7
20220811134613 23 116 0.0 4.8 0.00 0.00 0.00 78 1012.7
20220811134044 23 342 1.6 4.8 0.00 0.00 0.00 78 1012.7
20220811133544 23 338 1.6 4.8 0.00 0.00 0.00 80 1012.7
20220811133057 22 111 0.0 3.2 0.00 0.00 0.00 82 1012.7
20220811132538 22 111 0.0 3.2 0.00 0.00 0.00 82 1012.7
20220811132041 22 111 1.6 3.2 0.00 0.00 0.00 82 1012.7
20220811131608 22 94 0.0 3.2 0.00 0.00 0.00 82 1012.8
20220811131046 22 360 1.6 3.2 0.00 0.00 0.00 82 1012.8
20220811130543 22 0 0.0 3.2 0.00 0.00 0.00 84 1012.8
20220811130141 22 120 0.0 3.2 0.00 0.00 0.00 83 1012.9
20220811125539 21 0 0.0 3.2 0.00 0.00 0.00 84 1012.8
20220811125045 21 130 0.0 3.2 0.00 0.00 0.00 84 1012.9
20220811124612 21 104 0.0 3.2 0.00 0.00 0.00 84 1012.9
20220811124040 21 136 0.0 4.8 0.00 0.00 0.00 85 1013.1
20220811123544 21 0 1.6 4.8 0.00 0.00 0.00 85 1013.0
20220811123055 21 82 0.0 1.6 0.00 0.00 0.00 85 1013.1
20220811122540 21 0 0.0 3.2 0.00 0.00 0.00 86 1013.0
20220811122041 21 75 0.0 3.2 0.00 0.00 0.00 87 1013.0
20220811121601 21 73 0.0 3.2 0.00 0.00 0.00 87 1013.0
20220811121040 21 127 0.0 3.2 0.00 0.00 0.00 87 1012.9
20220811120540 21 120 0.0 4.8 0.00 0.00 0.00 88 1013.0
20220811120055 21 0 1.6 4.8 0.00 0.00 0.00 88 1013.0
20220811115540 21 112 1.6 6.4 0.00 0.00 0.00 88 1012.9
20220811115045 21 126 1.6 6.4 0.00 0.00 0.00 88 1013.1
20220811114553 21 89 3.2 6.4 0.00 0.00 0.00 88 1013.1
20220811114042 21 98 1.6 4.8 0.00 0.00 0.00 88 1013.1
20220811113546 21 197 0.0 3.2 0.00 0.00 0.00 88 1013.1
20220811113056 21 0 0.0 1.6 0.00 0.00 0.00 89 1013.0
20220811112543 21 130 0.0 1.6 0.00 0.00 0.00 89 1013.0
20220811112045 21 0 0.0 4.8 0.00 0.00 0.00 89 1013.1
20220811111558 21 130 1.6 4.8 0.00 0.00 0.00 89 1013.2
20220811111046 21 105 0.0 3.2 0.00 0.00 0.00 89 1013.3
20220811110541 21 94 0.0 1.6 0.00 0.00 0.00 89 1013.3
20220811110103 21 0 0.0 1.6 0.00 0.00 0.00 89 1013.3
20220811105540 20 0 0.0 3.2 0.00 0.00 0.00 89 1013.1
20220811105040 20 94 0.0 3.2 0.00 0.00 0.00 89 1013.1
20220811104604 20 96 0.0 1.6 0.00 0.00 0.00 90 1013.2
20220811104040 20 0 0.0 1.6 0.00 0.00 0.00 90 1013.2
20220811103541 20 0 0.0 1.6 0.00 0.00 0.00 90 1013.1
20220811103053 20 0 0.0 1.6 0.00 0.00 0.00 91 1013.2
20220811102542 20 0 0.0 1.6 0.00 0.00 0.00 91 1013.1
20220811102042 20 77 0.0 1.6 0.00 0.00 0.00 90 1013.2
20220811101553 20 0 0.0 0.0 0.00 0.00 0.00 90 1013.2
20220811101042 20 0 0.0 0.0 0.00 0.00 0.00 90 1013.2
20220811100541 20 0 0.0 0.0 0.00 0.00 0.00 90 1013.1
20220811100102 20 0 0.0 0.0 0.00 0.00 0.00 90 1013.1
20220811095544 20 0 0.0 0.0 0.00 0.00 0.00 90 1013.0
20220811095041 20 0 0.0 0.0 0.00 0.00 0.00 90 1013.1
20220811094554 20 0 0.0 0.0 0.00 0.00 0.00 90 1013.1
20220811094045 20 0 0.0 0.0 0.00 0.00 0.00 89 1013.2
20220811093544 20 0 0.0 0.0 0.00 0.00 0.00 90 1013.0
20220811093050 20 0 0.0 0.0 0.00 0.00 0.00 89 1013.1
20220811092540 20 0 0.0 0.0 0.00 0.00 0.00 89 1013.0
20220811092043 20 0 0.0 0.0 0.00 0.00 0.00 89 1013.0
20220811091558 20 0 0.0 0.0 0.00 0.00 0.00 89 1013.2
20220811091044 20 0 0.0 0.0 0.00 0.00 0.00 89 1013.1
20220811090540 20 0 0.0 0.0 0.00 0.00 0.00 89 1013.3
20220811090050 20 0 0.0 0.0 0.00 0.00 0.00 89 1013.3
20220811085541 20 0 0.0 0.0 0.00 0.00 0.00 89 1013.3
20220811085044 20 0 0.0 0.0 0.00 0.00 0.00 89 1013.4
20220811084555 20 0 0.0 0.0 0.00 0.00 0.00 89 1013.4
20220811084044 20 0 0.0 0.0 0.00 0.00 0.00 89 1013.5
20220811083540 20 0 0.0 0.0 0.00 0.00 0.00 89 1013.5
20220811083056 19 0 0.0 0.0 0.00 0.00 0.00 89 1013.5
20220811082544 19 0 0.0 0.0 0.00 0.00 0.00 89 1013.7
20220811082040 19 0 0.0 0.0 0.00 0.00 0.00 89 1013.8
20220811081614 19 0 0.0 0.0 0.00 0.00 0.00 89 1013.8
20220811081040 19 0 0.0 1.6 0.00 0.00 0.00 89 1013.8
20220811080540 19 0 0.0 1.6 0.00 0.00 0.00 89 1013.8
20220811080051 20 0 0.0 1.6 0.00 0.00 0.00 88 1013.7
20220811075547 20 50 0.0 1.6 0.00 0.00 0.00 88 1013.7
20220811075042 20 0 0.0 1.6 0.00 0.00 0.00 88 1013.8
20220811074605 20 0 0.0 1.6 0.00 0.00 0.00 88 1014.0
20220811074040 20 0 0.0 3.2 0.00 0.00 0.00 88 1014.0
20220811073545 20 0 0.0 3.2 0.00 0.00 0.00 88 1014.1
20220811073101 20 51 0.0 1.6 0.00 0.00 0.00 88 1014.2
20220811072543 20 0 0.0 1.6 0.00 0.00 0.00 88 1014.2
20220811072040 20 51 0.0 1.6 0.00 0.00 0.00 88 1014.3
20220811071556 20 0 0.0 0.0 0.00 0.00 0.00 88 1014.4
20220811071041 20 0 0.0 1.6 0.00 0.00 0.00 88 1014.5
20220811070546 20 0 0.0 1.6 0.00 0.00 0.00 87 1014.6
20220811070104 20 0 0.0 1.6 0.00 0.00 0.00 88 1014.6
20220811065539 20 51 0.0 1.6 0.00 0.00 0.00 88 1014.7
20220811065041 20 51 0.0 1.6 0.00 0.00 0.00 88 1014.8
20220811064546 20 51 0.0 1.6 0.00 0.00 0.00 88 1014.8
20220811064041 20 0 0.0 1.6 0.00 0.00 0.00 88 1014.9
20220811063542 20 51 0.0 1.6 0.00 0.00 0.00 88 1014.8
20220811063058 20 0 0.0 1.6 0.00 0.00 0.00 88 1014.7
20220811062541 20 0 0.0 0.0 0.00 0.00 0.00 88 1014.7
20220811062041 20 0 0.0 1.6 0.00 0.00 0.00 88 1014.9
20220811061550 20 51 0.0 3.2 0.00 0.00 0.00 88 1014.9
20220811061037 20 0 1.6 3.2 0.00 0.00 0.00 88 1014.8
20220811060538 20 0 0.0 3.2 0.00 0.00 0.00 88 1015.0
20220811060100 20 0 0.0 1.6 0.00 0.00 0.00 88 1014.9
20220811055541 20 0 0.0 1.6 0.00 0.00 0.00 88 1014.9
20220811055037 20 51 0.0 1.6 0.00 0.00 0.00 88 1015.0
20220811054555 20 0 0.0 1.6 0.00 0.00 0.00 88 1015.1
20220811054040 20 0 0.0 3.2 0.00 0.00 0.00 88 1015.1
20220811053541 20 50 0.0 3.2 0.00 0.00 0.00 88 1015.2
20220811053048 20 51 0.0 3.2 0.00 0.00 0.00 88 1015.3
20220811052542 20 0 0.0 1.6 0.00 0.00 0.00 88 1015.3
20220811052041 20 50 1.6 3.2 0.00 0.00 0.00 88 1015.4
20220811051554 20 50 0.0 3.2 0.00 0.00 0.00 88 1015.4
20220811051047 20 50 0.0 3.2 0.00 0.00 0.00 88 1015.4
20220811050540 19 50 0.0 3.2 0.00 0.00 0.00 88 1015.4
20220811050059 19 77 0.0 3.2 0.00 0.00 0.00 88 1015.5
20220811045546 19 0 0.0 0.0 0.00 0.00 0.00 88 1015.5
20220811045039 19 0 0.0 0.0 0.00 0.00 0.00 88 1015.5
20220811044558 19 0 0.0 0.0 0.00 0.00 0.00 88 1015.5
20220811044037 19 0 0.0 0.0 0.00 0.00 0.00 88 1015.5
20220811043538 19 0 0.0 0.0 0.00 0.00 0.00 88 1015.4
20220811043104 19 0 0.0 0.0 0.00 0.00 0.00 88 1015.4
20220811042539 19 0 0.0 1.6 0.00 0.00 0.00 88 1015.5
20220811042040 19 0 0.0 1.6 0.00 0.00 0.00 88 1015.6
20220811041553 19 70 0.0 1.6 0.00 0.00 0.00 88 1015.7
20220811041045 19 0 0.0 1.6 0.00 0.00 0.00 88 1015.6
20220811040542 19 38 0.0 3.2 0.00 0.00 0.00 88 1015.7
20220811040116 19 0 0.0 3.2 0.00 0.00 0.00 88 1015.6
20220811035541 19 85 0.0 1.6 0.00 0.00 0.00 88 1015.7
20220811035039 19 86 0.0 1.6 0.00 0.00 0.00 88 1015.8
20220811034046 19 86 0.0 1.6 0.00 0.00 0.00 89 1015.8
20220811033537 19 86 0.0 3.2 0.00 0.00 0.00 89 1015.7
20220811033201 19 87 0.0 3.2 0.00 0.00 0.00 89 1015.8
20220811032956 19 49 0.0 4.8 0.00 0.00 0.00 89 1015.7
20220811032551 19 36 1.6 4.8 0.00 0.00 0.00 88 1015.8
20220811032406 19 70 0.0 3.2 0.00 0.00 0.00 88 1015.8
20220811032250 19 73 0.0 3.2 0.00 0.00 0.00 89 1015.7
20220811032151 19 347 0.0 3.2 0.00 0.00 0.00 89 1015.8
20220811030052 19 0 0.0 3.2 0.00 0.00 0.00 89 1015.8
20220811025538 19 321 0.0 3.2 0.00 0.00 0.00 89 1015.9
20220811025045 19 321 1.6 4.8 0.00 0.00 0.00 89 1015.8
20220811024602 19 35 1.6 4.8 0.00 0.00 0.00 89 1015.9
20220811024039 19 49 0.0 4.8 0.00 0.00 0.00 89 1016.0
20220811023538 18 67 1.6 4.8 0.00 0.00 0.00 89 1016.0
20220811023140 18 82 0.0 6.4 0.00 0.00 0.00 89 1016.1
20220811022540 18 71 1.6 6.4 0.00 0.00 0.00 89 1016.1
20220811022047 18 338 1.6 4.8 0.00 0.00 0.00 89 1016.2
20220811021546 18 10 1.6 4.8 0.00 0.00 0.00 89 1016.3
20220811021039 18 84 0.0 4.8 0.00 0.00 0.00 89 1016.2
20220811020542 18 62 0.0 4.8 0.00 0.00 0.00 89 1016.4
20220811020056 18 68 1.6 4.8 0.00 0.00 0.00 89 1016.3
20220811015537 18 84 0.0 4.8 0.00 0.00 0.00 89 1016.3
20220811015040 18 18 0.0 9.7 0.00 0.00 0.00 88 1016.4
20220811014558 18 41 3.2 9.7 0.00 0.00 0.00 88 1016.3
20220811014040 18 334 0.0 3.2 0.00 0.00 0.00 88 1016.3
20220811013543 18 86 0.0 6.4 0.00 0.00 0.00 88 1016.3
20220811013049 18 0 0.0 6.4 0.00 0.00 0.00 88 1016.2
20220811012540 18 343 3.2 6.4 0.00 0.00 0.00 88 1016.5
20220811012042 18 331 3.2 4.8 0.00 0.00 0.00 88 1016.5
20220811011547 18 75 0.0 3.2 0.00 0.00 0.00 88 1016.5
20220811011041 18 88 0.0 1.6 0.00 0.00 0.00 88 1016.4
20220811010545 18 87 0.0 3.2 0.00 0.00 0.00 88 1016.4
20220811010053 18 87 0.0 3.2 0.00 0.00 0.00 88 1016.3
20220811005544 18 87 0.0 3.2 0.00 0.00 0.00 88 1016.2
20220811005043 18 51 0.0 4.8 0.00 0.00 0.00 88 1016.2
20220811004552 18 70 0.0 4.8 0.00 0.00 0.00 87 1016.1
20220811004039 18 90 0.0 3.2 0.00 0.00 0.00 87 1016.2
20220811003543 18 78 1.6 4.8 0.00 0.00 0.00 87 1016.0
20220811003051 18 356 1.6 6.4 0.00 0.00 0.00 87 1015.9
20220811002537 18 61 1.6 6.4 0.00 0.00 0.00 87 1015.9
20220811002038 18 0 0.0 4.8 0.00 0.00 0.00 87 1015.9
20220811001602 18 75 0.0 4.8 0.00 0.00 0.00 87 1015.8
20220811001037 18 68 1.6 4.8 0.00 0.00 0.00 87 1015.8
20220811000540 18 95 0.0 3.2 0.00 0.00 0.00 86 1015.7
20220811000049 18 0 0.0 3.2 0.00 0.00 0.00 86 1015.8
20220810235547 19 85 0.0 6.4 0.00 0.00 0.00 86 1015.7
20220810235041 19 357 0.0 6.4 0.00 0.00 0.00 86 1015.8
20220810234544 19 0 0.0 6.4 0.00 0.00 0.00 86 1015.8
20220810234038 19 351 1.6 6.4 0.00 0.00 0.00 85 1015.8